Back to catalog

ARIANE 5 R/B

AliveGTO
NORAD 28913·ROCKET BODY·🇫🇷 France

Launched Dec 21, 2005 from Guiana Space Centre

Loading…

TLE

FreshSource: Space-Track

Epoch: Sep 14, 2026, 15:24 UTC

1 28913U 05049C   26257.64185516 -.00000088  00000-0  13718-2 0  9998
2 28913   4.0105 285.7378 7147921  39.7029 127.6370  2.24899561170400

Track ARIANE 5 R/B in real time with AllMySat

Download on the App Store